Precipitable_Water
0.57 0.62 0.66 0.55 0.26 0.27 0.19 0.23 0.27 0.24 0.19 0.26 0.30 0.27 0.26 0.29 0.26 0.19 0.71 0.79 0.78 0.82 0.82 0.79 0.83 0.86 0.94 1.00 1.02 1.02 1.04 1.04 1.01 1.00 1.01 1.01 1.03 1.04 1.03 1.04 1.02 1.03 1.07 1.09 1.13 1.10 1.08 1.15 1.21
0.56 0.57 0.56 0.45 0.23 0.16 0.18 0.26 0.22 0.25 0.23 0.26 0.30 0.30 0.27 0.25 0.40 0.48 0.58 0.78 0.82 0.78 0.79 0.78 0.79 0.79 0.81 0.85 0.85 0.88 0.89 0.88 0.87 0.88 0.87 0.86 0.85 0.87 0.88 0.90 0.94 0.98 1.02 1.03 1.00 0.99 1.00 1.01 1.03
0.52 0.54 0.39 0.31 0.24 0.19 0.17 0.22 0.22 0.24 0.25 0.25 0.24 0.32 0.33 0.29 0.39 0.46 0.58 0.72 0.80 0.78 0.75 0.76 0.78 0.79 0.76 0.76 0.79 0.81 0.81 0.81 0.84 0.80 0.78 0.78 0.77 0.75 0.73 0.70 0.71 0.73 0.79 0.82 0.80 0.76 0.74 0.76 0.81
0.42 0.40 0.36 0.22 0.20 0.25 0.25 0.26 0.29 0.29 0.29 0.30 0.28 0.23 0.31 0.41 0.40 0.48 0.57 0.65 0.71 0.76 0.72 0.74 0.77 0.78 0.76 0.74 0.75 0.73 0.74 0.74 0.72 0.69 0.67 0.63 0.60 0.57 0.54 0.54 0.54 0.54 0.56 0.56 0.54 0.52 0.51 0.50 0.51
0.41 0.36 0.20 0.20 0.24 0.28 0.30 0.29 0.32 0.29 0.28 0.28 0.28 0.23 0.26 0.37 0.47 0.52 0.58 0.64 0.62 0.70 0.72 0.72 0.75 0.74 0.71 0.69 0.67 0.64 0.66 0.59 0.58 0.55 0.52 0.47 0.43 0.41 0.41 0.40 0.39 0.39 0.39 0.40 0.40 0.39 0.38 0.37 0.37
0.26 0.33 0.20 0.17 0.21 0.28 0.27 0.29 0.29 0.28 0.28 0.28 0.27 0.25 0.26 0.38 0.43 0.51 0.60 0.62 0.68 0.67 0.70 0.71 0.73 0.71 0.67 0.62 0.58 0.55 0.58 0.56 0.52 0.47 0.45 0.43 0.41 0.39 0.38 0.37 0.35 0.36 0.36 0.36 0.35 0.34 0.35 0.36 0.36
0.28 0.26 0.18 0.18 0.19 0.22 0.24 0.27 0.24 0.25 0.25 0.26 0.30 0.23 0.27 0.34 0.43 0.50 0.57 0.61 0.65 0.69 0.69 0.70 0.70 0.69 0.65 0.60 0.56 0.54 0.55 0.53 0.49 0.47 0.46 0.44 0.41 0.38 0.37 0.37 0.37 0.38 0.38 0.38 0.38 0.37 0.34 0.33 0.34
0.30 0.24 0.16 0.16 0.17 0.18 0.25 0.25 0.25 0.22 0.20 0.29 0.31 0.21 0.21 0.31 0.42 0.48 0.53 0.57 0.61 0.64 0.66 0.66 0.66 0.65 0.60 0.58 0.56 0.55 0.54 0.50 0.48 0.46 0.44 0.42 0.40 0.36 0.36 0.38 0.39 0.41 0.40 0.39 0.39 0.36 0.33 0.32 0.32
0.35 0.16 0.12 0.13 0.17 0.19 0.25 0.23 0.26 0.26 0.23 0.24 0.27 0.27 0.29 0.34 0.39 0.40 0.41 0.47 0.53 0.57 0.60 0.63 0.61 0.60 0.55 0.53 0.55 0.57 0.54 0.48 0.45 0.45 0.43 0.40 0.37 0.34 0.36 0.38 0.38 0.38 0.37 0.37 0.37 0.35 0.33 0.31 0.31
0.27 0.17 0.14 0.20 0.22 0.20 0.22 0.23 0.22 0.20 0.20 0.20 0.22 0.26 0.31 0.34 0.33 0.32 0.32 0.33 0.40 0.45 0.51 0.57 0.57 0.53 0.50 0.48 0.52 0.53 0.50 0.44 0.40 0.40 0.40 0.38 0.37 0.37 0.38 0.38 0.37 0.36 0.35 0.35 0.35 0.34 0.32 0.30 0.30
0.27 0.17 0.21 0.20 0.22 0.23 0.21 0.21 0.23 0.19 0.15 0.18 0.17 0.20 0.26 0.29 0.30 0.29 0.30 0.32 0.33 0.39 0.44 0.49 0.51 0.49 0.43 0.42 0.45 0.46 0.44 0.40 0.39 0.40 0.42 0.41 0.42 0.42 0.39 0.38 0.37 0.34 0.33 0.32 0.32 0.31 0.31 0.31 0.31
0.21 0.24 0.25 0.23 0.25 0.23 0.20 0.22 0.19 0.19 0.16 0.21 0.22 0.23 0.25 0.24 0.25 0.26 0.27 0.29 0.32 0.34 0.37 0.42 0.46 0.45 0.43 0.40 0.41 0.39 0.38 0.39 0.40 0.41 0.43 0.43 0.41 0.40 0.39 0.38 0.37 0.36 0.35 0.33 0.33 0.32 0.32 0.31 0.31
0.23 0.23 0.26 0.26 0.26 0.24 0.25 0.20 0.21 0.19 0.22 0.24 0.24 0.23 0.23 0.23 0.24 0.26 0.28 0.30 0.31 0.31 0.34 0.37 0.41 0.42 0.41 0.39 0.38 0.36 0.37 0.38 0.39 0.40 0.41 0.42 0.39 0.38 0.38 0.38 0.38 0.36 0.36 0.35 0.34 0.33 0.32 0.31 0.31
0.24 0.24 0.23 0.23 0.23 0.25 0.22 0.19 0.23 0.18 0.25 0.23 0.24 0.22 0.22 0.23 0.23 0.26 0.27 0.26 0.28 0.30 0.32 0.35 0.37 0.40 0.39 0.38 0.38 0.37 0.39 0.39 0.39 0.39 0.40 0.41 0.39 0.37 0.37 0.38 0.37 0.37 0.37 0.37 0.36 0.34 0.33 0.32 0.32
0.26 0.20 0.21 0.19 0.20 0.19 0.22 0.18 0.18 0.21 0.24 0.21 0.21 0.22 0.23 0.23 0.26 0.24 0.25 0.26 0.27 0.28 0.31 0.32 0.35 0.38 0.37 0.36 0.38 0.38 0.39 0.40 0.39 0.38 0.38 0.38 0.36 0.35 0.34 0.35 0.36 0.37 0.37 0.37 0.37 0.36 0.35 0.33 0.33
0.21 0.21 0.15 0.16 0.19 0.21 0.22 0.13 0.17 0.23 0.24 0.21 0.21 0.22 0.22 0.23 0.24 0.26 0.27 0.28 0.30 0.30 0.31 0.33 0.34 0.35 0.37 0.36 0.38 0.38 0.39 0.40 0.40 0.38 0.37 0.36 0.35 0.35 0.34 0.34 0.35 0.36 0.37 0.37 0.37 0.36 0.35 0.34 0.34
0.20 0.15 0.15 0.14 0.19 0.20 0.21 0.15 0.17 0.22 0.23 0.21 0.20 0.21 0.22 0.22 0.24 0.25 0.28 0.29 0.31 0.32 0.33 0.33 0.33 0.33 0.36 0.38 0.39 0.39 0.39 0.39 0.40 0.39 0.36 0.35 0.33 0.33 0.33 0.34 0.35 0.37 0.36 0.37 0.37 0.36 0.35 0.33 0.33
0.15 0.16 0.17 0.16 0.17 0.21 0.20 0.18 0.20 0.21 0.22 0.21 0.21 0.21 0.21 0.22 0.21 0.24 0.27 0.31 0.33 0.34 0.34 0.34 0.34 0.34 0.36 0.39 0.40 0.39 0.39 0.39 0.40 0.39 0.37 0.34 0.33 0.32 0.32 0.33 0.34 0.36 0.36 0.37 0.36 0.35 0.35 0.35 0.35
0.22 0.20 0.18 0.19 0.21 0.21 0.20 0.20 0.21 0.21 0.21 0.20 0.20 0.20 0.20 0.21 0.21 0.25 0.27 0.30 0.32 0.35 0.36 0.35 0.33 0.34 0.37 0.37 0.36 0.36 0.36 0.37 0.40 0.40 0.38 0.35 0.33 0.32 0.32 0.32 0.34 0.36 0.35 0.36 0.36 0.36 0.35 0.35 0.36
0.26 0.24 0.22 0.23 0.25 0.23 0.22 0.20 0.23 0.24 0.22 0.20 0.19 0.19 0.20 0.21 0.21 0.23 0.26 0.30 0.32 0.34 0.36 0.37 0.36 0.37 0.37 0.37 0.37 0.36 0.37 0.39 0.41 0.41 0.38 0.36 0.34 0.32 0.32 0.32 0.33 0.34 0.34 0.34 0.34 0.34 0.33 0.35 0.34
0.27 0.26 0.25 0.23 0.26 0.27 0.24 0.19 0.20 0.22 0.24 0.23 0.23 0.23 0.23 0.21 0.21 0.24 0.26 0.29 0.33 0.33 0.34 0.33 0.36 0.38 0.39 0.39 0.39 0.38 0.40 0.40 0.39 0.37 0.36 0.35 0.34 0.32 0.31 0.31 0.32 0.33 0.33 0.32 0.33 0.33 0.32 0.30 0.32
0.22 0.30 0.28 0.26 0.24 0.18 0.24 0.11 0.18 0.21 0.22 0.24 0.25 0.25 0.23 0.22 0.24 0.25 0.25 0.27 0.31 0.32 0.34 0.34 0.37 0.39 0.40 0.40 0.39 0.38 0.37 0.36 0.36 0.36 0.36 0.34 0.33 0.32 0.33 0.32 0.32 0.33 0.33 0.32 0.33 0.33 0.32 0.31 0.28
0.26 0.32 0.29 0.27 0.24 0.23 0.23 0.19 0.17 0.21 0.20 0.22 0.24 0.25 0.26 0.26 0.27 0.26 0.28 0.30 0.32 0.34 0.34 0.36 0.38 0.40 0.40 0.40 0.40 0.39 0.38 0.38 0.37 0.36 0.35 0.33 0.33 0.35 0.35 0.34 0.33 0.33 0.33 0.32 0.32 0.32 0.31 0.31 0.30
0.33 0.30 0.30 0.30 0.27 0.17 0.22 0.22 0.14 0.19 0.21 0.22 0.25 0.28 0.29 0.31 0.32 0.31 0.33 0.34 0.34 0.36 0.37 0.36 0.38 0.39 0.40 0.40 0.40 0.39 0.38 0.37 0.36 0.36 0.35 0.35 0.35 0.35 0.35 0.34 0.34 0.33 0.33 0.33 0.32 0.32 0.30 0.30 0.29
0.32 0.28 0.22 0.19 0.19 0.17 0.23 0.21 0.19 0.24 0.27 0.28 0.27 0.28 0.29 0.31 0.33 0.32 0.33 0.33 0.35 0.35 0.35 0.36 0.39 0.38 0.41 0.42 0.41 0.40 0.40 0.40 0.38 0.38 0.37 0.36 0.36 0.35 0.35 0.35 0.34 0.34 0.33 0.33 0.33 0.32 0.30 0.30 0.29
0.30 0.30 0.25 0.20 0.18 0.19 0.26 0.17 0.18 0.26 0.28 0.29 0.29 0.30 0.31 0.32 0.32 0.32 0.32 0.34 0.35 0.35 0.35 0.36 0.37 0.37 0.40 0.40 0.40 0.40 0.40 0.40 0.40 0.39 0.39 0.38 0.38 0.37 0.37 0.36 0.35 0.34 0.34 0.34 0.33 0.32 0.30 0.30 0.30
0.32 0.28 0.33 0.28 0.27 0.23 0.21 0.22 0.25 0.29 0.29 0.28 0.29 0.30 0.30 0.32 0.34 0.33 0.34 0.35 0.35 0.35 0.36 0.36 0.37 0.38 0.40 0.41 0.41 0.41 0.41 0.40 0.40 0.40 0.41 0.40 0.40 0.39 0.38 0.36 0.35 0.35 0.34 0.34 0.33 0.32 0.32 0.31 0.31
0.37 0.39 0.29 0.30 0.23 0.21 0.23 0.21 0.20 0.25 0.27 0.28 0.30 0.31 0.31 0.33 0.36 0.37 0.36 0.36 0.37 0.36 0.37 0.36 0.37 0.39 0.41 0.42 0.42 0.42 0.42 0.43 0.42 0.42 0.41 0.42 0.42 0.40 0.39 0.37 0.36 0.36 0.35 0.34 0.34 0.33 0.33 0.32 0.32
0.35 0.33 0.34 0.34 0.31 0.24 0.23 0.24 0.28 0.28 0.29 0.31 0.32 0.34 0.34 0.36 0.36 0.36 0.37 0.38 0.38 0.37 0.37 0.36 0.38 0.39 0.40 0.43 0.44 0.43 0.43 0.43 0.43 0.43 0.44 0.44 0.44 0.42 0.40 0.38 0.38 0.37 0.36 0.35 0.34 0.33 0.33 0.33 0.32
0.40 0.35 0.33 0.28 0.27 0.31 0.29 0.28 0.33 0.33 0.34 0.34 0.35 0.38 0.37 0.34 0.35 0.36 0.38 0.40 0.40 0.40 0.39 0.38 0.39 0.39 0.42 0.44 0.46 0.46 0.45 0.45 0.44 0.45 0.46 0.46 0.45 0.44 0.42 0.40 0.38 0.38 0.37 0.35 0.35 0.35 0.35 0.34 0.33
Wind_Speed
5 6 6 6 6 5 7 7 6 5 5 5 4 4 5 4 4 4 2 4 4 6 7 7 7 7 7 6 6 6 6 5 4 4 4 4 4 3 3 3 4 4 4 4 4 4 5 6 6
5 5 5 5 5 6 6 6 5 6 6 4 5 5 6 8 7 6 5 7 7 7 8 8 8 8 8 8 7 7 7 6 5 5 5 5 4 4 4 4 4 4 5 5 5 5 5 6 6
3 4 4 4 4 3 5 5 5 6 5 5 5 7 7 7 8 9 8 8 9 8 9 10 10 10 9 9 9 9 8 7 7 6 6 6 6 5 5 5 5 5 6 6 6 7 7 8 8
3 4 5 4 5 7 6 6 5 5 6 6 5 6 7 7 6 8 8 9 10 10 10 11 11 11 11 11 10 10 9 8 8 7 7 7 7 7 7 7 6 6 7 7 7 8 8 8 9
3 4 4 5 6 7 7 5 3 5 6 6 5 7 7 7 7 7 8 9 10 11 12 12 12 12 12 12 12 11 11 10 10 9 9 9 9 9 8 8 8 8 8 8 8 9 9 9 9
3 4 5 5 6 7 7 4 5 6 7 6 6 7 8 7 5 6 7 9 10 11 13 13 14 13 13 13 13 13 13 12 12 11 11 10 10 10 9 9 9 9 9 9 9 10 10 10 10
3 4 5 6 7 8 7 4 6 7 7 8 7 6 8 8 7 7 7 8 9 11 12 14 15 15 15 15 15 15 15 14 13 12 12 12 11 11 11 11 11 11 11 11 11 11 11 11 12
5 6 8 8 8 10 8 7 9 8 10 9 8 9 10 9 8 7 8 8 9 11 12 14 15 15 16 16 17 17 16 16 15 14 13 13 13 13 13 13 14 14 14 14 14 14 14 14 14
8 8 10 11 9 11 9 11 12 12 12 11 11 12 12 10 9 10 10 11 12 13 14 15 16 16 17 17 17 17 18 17 17 16 15 15 15 14 14 15 15 15 16 16 16 16 17 17 17
11 11 13 12 12 14 14 14 15 14 15 15 15 15 14 12 12 13 14 14 15 16 17 17 17 17 18 18 19 19 19 19 18 18 18 17 17 16 16 16 17 17 17 18 18 18 19 19 19
15 16 16 17 17 17 18 18 18 17 18 18 18 19 17 17 18 18 19 18 19 19 19 19 19 20 20 20 20 20 20 20 20 20 20 19 19 18 18 18 18 19 19 19 20 20 20 20 21
19 21 21 21 21 20 20 20 21 21 24 22 23 21 19 21 21 22 22 22 21 21 22 22 22 22 22 21 22 22 22 22 22 22 21 21 20 20 20 20 20 20 20 20 21 21 21 21 21
22 23 23 24 24 24 23 24 25 26 25 25 25 24 23 24 24 24 25 25 25 25 25 25 25 25 24 24 24 24 24 24 24 23 23 22 22 22 21 21 21 22 22 22 22 23 23 23 23
23 25 26 26 27 27 26 26 22 25 24 25 25 27 26 26 27 26 27 28 28 28 28 28 28 28 27 26 26 26 26 26 25 24 24 23 23 22 22 23 23 23 24 24 24 25 25 25 25
24 26 25 25 25 26 24 24 23 26 24 26 25 26 27 28 28 29 30 30 30 30 30 30 30 30 29 29 28 28 27 27 27 26 25 25 24 24 23 23 23 24 24 25 25 26 26 26 27
24 24 24 20 19 24 21 27 25 26 25 27 26 26 27 28 29 31 31 31 31 31 31 31 32 32 32 31 30 30 29 28 27 27 26 25 25 24 24 24 24 24 24 25 25 26 27 27 27
23 26 26 28 25 23 25 29 27 25 26 28 29 29 29 30 30 31 31 31 31 31 31 31 31 32 32 32 31 30 30 29 28 28 27 26 26 26 26 26 26 25 25 25 26 26 27 27 28
26 27 28 27 24 27 30 35 34 32 30 32 31 31 31 31 32 32 31 31 31 31 31 31 31 31 31 31 30 30 30 30 29 29 28 27 27 27 27 27 26 27 26 26 26 26 27 27 28
28 29 31 30 30 31 33 38 38 38 34 34 35 35 34 33 34 32 31 32 32 31 31 31 31 31 31 30 31 31 31 31 30 30 29 29 28 28 28 27 27 27 27 27 27 27 27 27 28
33 36 37 36 34 32 38 41 39 36 38 37 36 34 33 33 33 31 30 28 28 29 30 30 31 30 30 30 30 30 30 30 31 30 30 29 29 29 28 28 28 28 27 27 27 27 27 28 28
34 34 36 38 32 34 36 42 35 33 32 33 31 32 33 34 33 28 26 27 27 27 28 28 29 29 30 29 29 28 29 29 30 30 30 29 29 29 29 29 29 29 28 28 28 28 28 28 28
40 31 35 32 30 33 25 41 30 31 32 30 30 29 27 30 28 27 26 26 28 28 27 28 29 29 30 30 30 30 30 28 30 30 29 29 29 30 30 30 30 30 29 29 29 29 28 28 27
37 28 29 28 29 30 28 29 29 28 27 26 23 24 28 26 27 27 27 27 26 26 27 28 29 30 30 31 31 31 30 30 29 29 30 31 30 31 31 31 31 30 30 29 29 29 29 29 28
27 25 25 26 26 33 27 27 32 22 22 22 26 29 30 30 28 27 25 24 24 26 27 26 27 28 28 29 30 31 31 30 29 30 30 31 32 33 32 32 32 32 31 30 30 30 29 29 29
26 24 27 26 23 32 27 28 38 31 35 32 33 35 33 32 29 28 26 24 25 25 26 26 27 27 28 28 30 31 32 32 32 31 32 32 32 34 34 33 33 33 32 32 31 31 31 31 32
32 31 29 28 33 39 28 35 36 34 35 37 34 35 37 33 30 29 28 26 24 23 25 26 27 28 29 30 31 33 34 33 33 33 33 34 34 34 34 35 35 35 34 34 33 33 33 34 34
31 32 37 31 31 31 39 42 40 35 30 29 30 32 33 31 28 28 27 26 24 25 26 27 29 29 32 34 34 35 36 36 36 35 36 36 35 34 35 36 36 36 35 35 35 35 35 35 35
33 31 28 30 28 32 37 38 40 36 33 30 30 30 29 27 26 24 23 24 26 28 27 29 32 34 36 36 38 39 39 39 39 38 38 38 37 36 36 37 36 36 36 36 36 36 36 36 37
31 32 34 33 31 36 39 40 36 37 34 35 33 33 33 32 27 25 25 26 27 28 30 32 35 36 38 38 41 42 43 42 42 42 41 40 39 38 38 38 37 37 37 37 37 37 37 38 38
35 38 37 33 34 33 32 36 46 48 46 46 44 37 33 31 27 27 28 29 31 33 35 38 40 41 42 44 43 44 45 45 45 45 43 42 41 41 40 39 39 38 37 38 38 38 38 38 38
Wind_Direction
298 306 312 319 324 329 307 303 303 306 309 295 289 281 265 281 266 279 264 201 195 205 202 200 197 193 192 190 187 186 184 183 186 191 195 198 202 204 209 214 221 231 234 243 253 254 258 259 258
302 310 321 327 335 330 312 305 292 297 299 294 292 289 287 274 269 269 248 230 227 222 214 212 211 209 209 208 207 206 206 210 217 218 221 222 219 218 223 226 228 232 239 244 251 256 262 264 265
312 321 331 341 339 314 313 304 306 317 308 294 303 294 281 282 267 253 258 236 231 228 221 220 219 218 219 220 220 220 222 225 226 229 230 232 233 233 235 240 246 249 251 256 260 264 265 266 268
341 341 346 347 308 309 308 304 306 319 313 307 306 304 300 281 276 258 240 237 234 231 226 224 224 225 225 225 224 224 225 227 231 234 237 240 241 244 247 249 252 255 259 264 267 270 271 271 273
1 356 347 334 316 319 315 313 299 311 313 301 296 302 301 298 281 258 237 240 237 235 231 230 230 230 231 230 228 228 230 234 238 241 243 245 247 248 251 255 258 260 264 268 270 272 273 274 275
356 352 350 323 312 319 323 312 317 315 312 312 302 302 299 301 273 254 246 246 242 238 234 234 235 236 236 235 234 235 237 240 243 245 244 245 247 249 251 254 258 261 265 270 273 273 275 275 276
330 333 310 313 311 319 312 308 308 307 305 296 304 301 306 292 270 255 252 250 246 241 239 239 239 239 240 239 239 240 241 243 244 245 245 247 249 252 254 256 260 262 266 270 273 275 276 276 277
308 315 310 306 309 308 311 302 312 302 297 303 283 296 301 297 261 258 257 253 251 248 245 243 241 241 242 241 241 242 243 243 244 245 247 250 252 255 257 260 262 264 267 270 272 274 274 275 277
294 303 295 295 298 303 305 299 303 303 296 291 282 286 296 293 264 261 261 259 257 254 250 247 245 244 243 243 243 243 244 244 245 246 249 252 255 257 260 262 263 265 267 269 271 272 274 275 275
283 286 282 285 293 294 295 289 294 295 291 286 286 285 286 277 266 262 262 260 258 256 252 250 248 246 246 247 246 245 245 245 245 247 250 252 255 258 260 263 265 266 268 269 271 273 274 275 276
277 278 282 286 287 291 290 290 288 288 286 279 279 282 276 270 267 264 264 263 259 258 256 253 252 250 249 249 248 247 247 246 247 249 251 253 256 258 262 265 267 269 270 271 272 273 274 276 278
278 276 278 285 287 290 287 289 286 281 280 281 278 281 274 268 266 263 264 264 262 259 257 255 253 252 250 250 249 249 248 248 249 250 251 253 255 259 262 265 267 270 271 271 272 273 274 277 279
276 280 279 282 285 284 286 283 285 287 284 282 279 277 272 268 267 266 266 266 263 261 258 256 254 252 251 251 250 249 249 249 249 250 251 253 256 259 262 265 268 270 271 271 272 273 274 276 279
281 281 282 283 281 281 281 285 282 286 288 283 280 275 272 269 267 268 267 265 263 261 260 257 254 253 251 252 251 251 249 248 248 249 250 252 255 259 262 266 269 270 271 272 272 273 275 276 279
283 286 286 280 280 280 281 283 275 279 291 288 282 281 275 271 270 268 267 265 262 262 260 257 254 253 252 252 251 250 249 247 248 249 250 252 255 258 262 266 268 270 272 272 273 274 275 276 278
284 285 286 286 282 283 277 280 280 284 287 286 284 284 279 274 272 271 269 267 264 262 259 257 255 252 251 251 251 249 248 247 247 248 250 252 255 258 262 267 269 270 272 274 274 275 276 277 278
281 279 277 288 277 281 273 280 284 285 283 286 285 284 282 279 276 274 271 267 264 262 259 256 253 252 250 250 249 247 245 245 246 248 250 253 255 259 263 265 267 269 273 275 276 276 276 277 278
276 278 280 280 284 279 277 278 282 283 282 282 285 285 283 278 275 276 272 267 264 261 259 255 253 251 249 248 248 246 244 246 246 248 251 253 256 259 262 265 267 269 272 274 275 276 277 278 279
278 277 278 282 283 282 278 277 280 282 282 283 282 282 279 277 278 276 274 268 265 260 257 254 251 249 246 245 245 244 244 245 246 249 251 253 257 259 262 265 267 269 271 272 274 276 278 279 281
273 276 278 283 282 279 282 280 282 283 282 282 281 280 278 279 278 278 274 268 262 259 255 252 248 246 244 245 244 244 243 245 246 249 251 254 257 259 262 264 266 268 270 271 273 276 277 279 282
270 271 278 279 289 281 287 282 283 284 282 283 281 278 279 278 279 274 270 267 263 259 254 250 246 244 243 242 243 244 243 245 246 248 252 255 257 259 262 264 265 267 269 271 273 275 277 278 279
272 272 277 281 285 285 283 289 282 287 284 284 281 279 278 280 275 272 272 268 262 259 255 251 246 245 243 242 242 240 242 245 247 249 252 255 257 261 263 264 264 265 267 270 272 275 277 277 277
272 275 276 278 278 286 279 285 290 285 286 281 279 280 284 281 279 272 271 267 261 257 256 251 247 245 243 242 241 241 243 246 249 251 253 255 259 263 264 263 263 265 266 269 272 274 275 276 275
274 276 279 278 276 274 269 275 291 284 283 289 288 284 284 284 281 270 270 266 261 259 256 249 245 242 242 240 240 241 243 247 250 253 254 256 260 263 265 262 262 263 265 267 270 273 275 276 276
268 271 277 277 272 269 270 272 271 279 285 285 286 284 285 283 278 270 266 264 260 255 250 248 242 241 239 240 243 244 246 249 252 254 256 257 260 263 263 262 261 262 263 265 269 271 274 276 277
265 259 262 265 271 275 274 269 275 278 281 285 286 288 288 284 275 269 263 262 257 254 248 245 243 241 242 246 249 248 249 253 255 256 258 260 262 262 261 261 262 263 263 265 267 270 274 276 277
271 265 266 270 269 273 272 274 277 278 281 284 289 296 293 281 275 271 264 258 255 257 254 248 243 247 252 253 253 254 252 254 256 258 260 262 262 262 260 261 261 261 262 264 267 270 273 276 277
266 269 271 265 262 265 269 270 272 278 277 281 291 297 298 292 281 272 261 260 263 265 258 249 251 256 258 257 256 257 255 255 256 259 261 261 262 261 260 260 260 260 261 263 266 270 273 275 277
272 268 265 265 261 265 267 266 267 267 276 282 284 288 293 287 275 266 267 268 266 264 259 258 260 263 261 259 260 258 257 257 258 259 261 260 260 260 260 259 258 259 260 262 265 269 272 275 276
267 269 263 262 265 264 265 265 271 272 275 276 279 285 282 281 274 270 270 271 271 267 264 263 266 264 263 264 262 260 257 257 259 259 259 259 259 260 259 258 258 259 259 262 264 267 271 274 275